Hourly Data Report for October 02, 2017

All times are specified in Local Standard Time (LST). Add 1 hour to adjust for Daylight Saving Time where and when it is observed.

DAUPHIN
MANITOBA

51°06'03.000" N
100°03'09.000" W
304.50 m
5040689
71036
YDN

Related Data

No related data is available for this station

Download Data

Hourly Data (October 2017)
Hourly Data Report for October 2, 2017
Temp Definition
°C
Dew Point Temp Definition
°C
Rel Hum Definition
%
Wind Dir Definition
10's deg

Wind Spd Definition
km/h
Visibility Definition
km
Stn Press Definition
kPa
Hmdx Definition


Wind Chill Definition


Weather Definition


TIME
00:00 Legend Double Dagger 12.9 12.8 99 11 11 2.4 96.41     Fog
01:00 Legend Double Dagger 13.2 13.1 99 14 17 6.4 96.53     Fog
02:00 Legend Double Dagger 13.2 13.1 99 12 15 4.8 96.44     Fog
03:00 Legend Double Dagger 13.1 12.8 98 12 13 9.7 96.39     Fog
04:00 Legend Double Dagger 13.4 13.3 99 13 11 6.4 96.34     Fog
05:00 Legend Double Dagger 13.4 13.3 99 14 13 4.8 96.37     Fog
06:00 Legend Double Dagger 13.4 13.3 99 13 11 4.8 96.41     Fog
07:00 Legend Double Dagger 13.4 13.3 99 18 9 8.1 96.44     Fog
08:00 Legend Double Dagger 12.8 11.4 91 22 9 16.1 96.42     LegendNANA
09:00 Legend Double Dagger 13.9 11.2 84 22 18 16.1 96.43     LegendNANA
10:00 Legend Double Dagger 13.9 10.8 81 23 18 16.1 96.52     LegendNANA
11:00 Legend Double Dagger 12.3 8.4 77 24 24 16.1 96.61     LegendNANA
12:00 Legend Double Dagger 11.8 8.5 80 23 24 16.1 96.67     LegendNANA
13:00 Legend Double Dagger 11.0 7.1 77 23 28 16.1 96.76     LegendNANA
14:00 Legend Double Dagger 11.5 6.0 69 24 26 16.1 96.83     LegendNANA
15:00 Legend Double Dagger 11.6 5.4 65 23 26 16.1 96.85     LegendNANA
16:00 Legend Double Dagger 12.0 4.9 62 23 32 16.1 96.93     LegendNANA
17:00 Legend Double Dagger 11.6 4.1 60 24 24 16.1 96.99     LegendNANA
18:00 Legend Double Dagger 10.7 3.9 63 24 21 16.1 97.12     LegendNANA
19:00 Legend Double Dagger 10.5 3.5 62 24 17 16.1 97.19     LegendNANA
20:00 Legend Double Dagger 9.8 3.3 64 24 13 16.1 97.28     LegendNANA
21:00 Legend Double Dagger 7.0 2.4 72 22 11 16.1 97.36     LegendNANA
22:00 Legend Double Dagger 7.7 2.6 70 23 15 16.1 97.41     LegendNANA
23:00 Legend Double Dagger 6.6 2.1 73 24 17 16.1 97.41     LegendNANA

Notes on Data Quality.

Legend

  • E = Estimated
  • M = Missing
  • NA = Not Available
  • ‡ = Partner data that is not subject to review by the National Climate Archives
Date modified: